Weather History for PALU - May, 2013

Change the Weather History Date:

Tuesday, May 28, 2013

  Actual Average Record
Temperature  
Mean Temperature 32 °F -  
Max Temperature 33 °F 34 °F 48 °F (1998)
Min Temperature 30 °F 26 °F 25 °F (2003)
Degree Days  
Heating Degree Days 34    
Moisture  
Dew Point 32 °F    
Average Humidity 99    
Maximum Humidity 100    
Minimum Humidity 93    
Precipitation  
Precipitation 0.00 in - - ()
Sea Level Pressure  
Sea Level Pressure 30.01 in    
Wind  
Wind Speed 11 mph (NW)    
Max Wind Speed 17 mph    
Max Gust Speed -    
Visibility 5 miles    
Events Rain    
Averages and records for this station are not official NWS values.
T = Trace of Precipitation, MM = Missing Value Source: NWS Daily Summary

Daily Weather History Graph

Daily Weather History Graph

Search for Another Location

Airport or City:

Trip Planner

Search our weather history database for the weather conditions in past years. The results will help you decide how hot, cold, wet, or windy it might be!

Date:

Astronomy

May. 28, 2013 Rise Set
Actual Time 3:34 AM AKDT 2:29 AM AKDT
Civil Twilight Sun does not set Sun does not set
Nautical Twilight Sun does not set Sun does not set
Astronomical Twilight Sun does not set Sun does not set
Moon 3:43 AM AKDT (5/28) 9:20 AM AKDT (5/28)
Length of Visible Light 24h 00m
Length of Day
22h 55m
Waning Gibbous, 81% of the Moon is Illuminated
May 28
Waning Gibbous
May 31
Last Quarter
Jun 8
New
Jun 16
First Quarter
Jun 23
Full

Hourly Weather History & Observations

Time (AKDT) Temp. Windchill Dew Point Humidity Pressure Visibility Wind Dir Wind Speed Gust Speed Precip Events Conditions
12:20 AM 32.0 °F 26.4 °F 32.0 °F 100% 29.97 in 5.0 mi WNW 5.8 mph - N/A   Overcast
12:40 AM - - - N/A% 29.97 in 4.0 mi WNW 8.1 mph - N/A   Overcast
12:55 AM - - - N/A% 29.97 in 2.5 mi WNW 8.1 mph - N/A   Overcast
1:20 AM 32.0 °F 24.8 °F 32.0 °F 100% 29.97 in 3.0 mi NW 8.1 mph - N/A   Overcast
1:40 AM 32.0 °F 24.8 °F 32.0 °F 100% 29.96 in 5.0 mi WNW 8.1 mph - N/A   Overcast
1:55 AM 31.8 °F 23.9 °F 32.5 °F 100% 29.97 in 7.0 mi WNW 9.2 mph - N/A   Overcast
2:55 AM 31.3 °F 23.9 °F 32.0 °F 100% 29.96 in 3.0 mi NW 8.1 mph - N/A   Overcast
3:00 AM 32.0 °F 24.8 °F 32.0 °F 100% 29.96 in 2.5 mi WNW 8.1 mph - N/A   Overcast
3:20 AM 32.0 °F 24.2 °F 32.0 °F 100% 29.96 in 4.0 mi WNW 9.2 mph - N/A   Overcast
3:40 AM 32.0 °F 24.2 °F 32.0 °F 100% 29.96 in 3.0 mi WNW 9.2 mph - N/A   Overcast
3:55 AM 31.5 °F 23.5 °F 32.4 °F 100% 29.96 in 3.0 mi WNW 9.2 mph - N/A   Overcast
4:20 AM 32.0 °F 23.0 °F 32.0 °F 100% 29.96 in 5.0 mi WNW 11.5 mph - N/A   Overcast
4:40 AM 32.0 °F 22.5 °F 32.0 °F 100% 29.96 in 5.0 mi WNW 12.7 mph - N/A   Overcast
4:55 AM 31.6 °F 21.6 °F 32.4 °F 100% 29.96 in 6.0 mi WNW 13.8 mph - N/A   Overcast
5:20 AM 32.0 °F 22.5 °F 32.0 °F 100% 29.96 in 7.0 mi WNW 12.7 mph - N/A   Overcast
5:55 AM 31.5 °F 21.8 °F 32.2 °F 100% 29.96 in 8.0 mi WNW 12.7 mph - N/A   Overcast
6:55 AM 31.5 °F 21.8 °F 32.2 °F 100% 29.96 in 10.0 mi WNW 12.7 mph - N/A   Overcast
7:41 AM 32.0 °F 23.0 °F 32.0 °F 100% 29.97 in 10.0 mi WNW 11.5 mph - N/A   Overcast
7:55 AM 31.6 °F 22.1 °F 32.4 °F 100% 29.97 in 7.0 mi WNW 12.7 mph - N/A   Overcast
8:55 AM 31.8 °F 22.3 °F 32.2 °F 100% 29.97 in 6.0 mi WNW 12.7 mph - N/A   Overcast
9:21 AM 32.0 °F 23.0 °F 32.0 °F 100% 29.98 in 9.0 mi WNW 11.5 mph - N/A   Overcast
9:55 AM 31.6 °F 21.6 °F 32.2 °F 100% 29.98 in 10.0 mi WNW 13.8 mph - N/A   Overcast
10:41 AM 32.0 °F 20.8 °F 32.0 °F 100% 29.98 in 9.0 mi NW 17.3 mph - N/A   Mostly Cloudy
10:55 AM 32.2 °F 21.1 °F 32.4 °F 100% 29.99 in 9.0 mi WNW 17.3 mph - N/A   Overcast
11:41 AM 32.0 °F 21.2 °F 32.0 °F 100% 29.99 in 8.0 mi WNW 16.1 mph - N/A   Overcast
11:55 AM 32.9 °F 22.4 °F 32.5 °F 99% 29.99 in 10.0 mi WNW 16.1 mph - N/A   Overcast
12:55 PM 33.3 °F 23.2 °F 32.7 °F 98% 30.00 in 10.0 mi WNW 15.0 mph - N/A   Overcast
1:41 PM 33.8 °F 23.9 °F 33.8 °F 100% 30.01 in 5.0 mi WNW 15.0 mph - N/A   Overcast
1:55 PM 33.6 °F 22.9 °F 33.3 °F 99% 30.01 in 6.0 mi WNW 17.3 mph - N/A   Overcast
2:21 PM 33.8 °F 23.9 °F 33.8 °F 100% 30.01 in 10.0 mi WNW 15.0 mph - N/A   Overcast
2:55 PM 33.4 °F 23.1 °F 33.4 °F 100% 30.02 in 7.0 mi WNW 16.1 mph - N/A   Overcast
3:55 PM 33.3 °F 23.7 °F 32.7 °F 98% 30.04 in 10.0 mi WNW 13.8 mph - N/A   Overcast
4:01 PM 33.8 °F 23.9 °F 32.0 °F 93% 30.04 in 10.0 mi WNW 15.0 mph - N/A   Overcast
4:21 PM 33.8 °F 23.9 °F 32.0 °F 93% 30.04 in 10.0 mi NW 15.0 mph - N/A   Overcast
4:41 PM 33.8 °F 24.8 °F 32.0 °F 93% 30.04 in 10.0 mi WNW 12.7 mph - N/A   Overcast
4:55 PM 32.4 °F 21.7 °F 32.4 °F 100% 30.04 in 10.0 mi WNW 16.1 mph - N/A   Overcast
5:41 PM 32.0 °F 21.2 °F 32.0 °F 100% 30.04 in 4.0 mi NW 16.1 mph - N/A   Overcast
5:55 PM 31.8 °F 20.6 °F 32.2 °F 100% 30.04 in 1.2 mi NW 17.3 mph - N/A   Overcast
6:21 PM 32.0 °F 21.6 °F 32.0 °F 100% 30.04 in 10.0 mi NW 15.0 mph - N/A   Overcast
6:41 PM 32.0 °F 22.1 °F 32.0 °F 100% 30.04 in 1.0 mi NW 13.8 mph - N/A   Light Drizzle
6:55 PM 31.8 °F 21.8 °F 32.5 °F 100% 30.04 in 0.8 mi NW 13.8 mph - N/A Rain Light Freezing Rain
7:01 PM 32.0 °F 21.2 °F 32.0 °F 100% 30.04 in 1.0 mi NW 16.1 mph - N/A Rain Light Rain Showers
7:21 PM 32.0 °F 21.6 °F 32.0 °F 100% 30.05 in 0.8 mi NW 15.0 mph - N/A Rain Light Rain Showers
7:41 PM 32.0 °F 22.5 °F 32.0 °F 100% 30.05 in 2.5 mi NW 12.7 mph - N/A   Overcast
7:55 PM - - - N/A% 30.05 in 1.0 mi NW 11.5 mph - N/A   Overcast
8:01 PM - - - N/A% 30.06 in 1.5 mi NW 13.8 mph - N/A   Overcast
8:21 PM - - - N/A% 30.06 in 3.0 mi NW 12.7 mph - N/A   Overcast
8:41 PM 30.2 °F 19.8 °F 30.2 °F 100% 30.05 in 3.0 mi NW 13.8 mph - N/A   Overcast
8:55 PM - - - N/A% 30.06 in 2.0 mi NW 13.8 mph - N/A   Overcast
9:01 PM - - - N/A% 30.06 in 3.0 mi NW 12.7 mph - N/A   Overcast
9:21 PM 30.2 °F 19.3 °F 30.2 °F 100% 30.06 in 1.2 mi NW 15.0 mph - N/A Rain Light Freezing Rain
9:41 PM 30.2 °F 19.8 °F 30.2 °F 100% 30.06 in 9.0 mi NW 13.8 mph - N/A   Mostly Cloudy
9:55 PM 30.4 °F 20.5 °F 30.7 °F 100% 30.07 in 10.0 mi NW 12.7 mph - N/A   Overcast
10:41 PM 30.2 °F 19.3 °F 30.2 °F 100% 30.07 in 4.0 mi NW 15.0 mph - N/A   Mostly Cloudy
10:55 PM - - - N/A% 30.07 in 2.0 mi WNW 13.8 mph - N/A   Mostly Cloudy
11:01 PM - - - N/A% 30.08 in 1.8 mi WNW 13.8 mph - N/A   Mostly Cloudy
11:41 PM 32.0 °F 23.0 °F 32.0 °F 100% 30.08 in 0.8 mi WNW 11.5 mph - N/A   Mist
11:55 PM 31.1 °F 22.4 °F 31.8 °F 100% 30.09 in 1.8 mi WNW 10.4 mph - N/A   Overcast